Theta_e
302 297 295 299 301 300 298 296 295 298 301 299 297 297 299 302 302 302 304 305 306 305 306 306 305 305 305 305 305 306 307 309 310 313 315 317 318 320 321 322 321 320 317 314
297 294 300 301 300 296 296 294 294 298 300 298 296 295 298 300 302 304 304 304 304 304 303 302 302 301 301 301 302 303 304 306 307 309 313 314 315 317 318 319 319 318 316 313
296 299 301 298 297 295 296 294 294 294 297 297 295 294 299 301 305 305 304 303 302 301 299 299 299 299 299 299 300 301 302 303 305 306 309 310 311 309 310 312 314 314 314 312
298 300 296 296 294 296 291 298 295 293 291 289 295 286 295 300 301 301 301 300 300 299 299 299 298 298 298 298 300 300 300 301 302 304 305 305 305 303 306 306 309 310 311 310
295 295 293 294 295 297 294 295 293 293 291 292 293 289 294 300 297 297 297 298 298 298 297 297 297 297 297 298 298 299 298 298 300 301 302 302 302 303 305 304 304 306 307 306
296 297 295 296 297 296 296 293 293 294 292 286 293 291 292 295 295 296 296 297 297 297 297 296 297 297 296 298 297 297 297 296 298 298 299 299 299 300 300 302 301 303 303 303
297 295 296 296 293 295 293 291 286 285 287 286 293 290 293 298 297 297 295 295 296 296 295 295 294 294 294 294 296 295 295 295 296 297 296 296 296 297 298 299 299 300 301 301
290 288 294 295 294 294 294 293 287 280 282 287 293 288 293 299 296 297 296 295 295 294 294 294 293 293 293 293 293 294 293 292 293 294 295 295 295 295 296 296 297 298 298 300
290 290 299 296 296 294 293 289 294 287 287 284 288 293 299 299 295 295 294 294 292 293 293 293 293 292 292 292 292 292 292 292 291 292 293 294 294 294 293 294 295 296 296 297
294 288 296 295 295 295 292 293 287 288 279 278 285 287 289 294 294 293 292 290 290 291 292 292 292 291 291 292 292 291 291 289 289 290 291 291 291 292 293 293 293 293 293 294
295 291 290 294 291 290 290 288 289 289 287 280 279 284 293 292 293 291 288 288 288 288 288 290 291 290 289 289 289 289 289 288 288 288 289 290 290 290 289 289 290 291 291 292
295 291 285 287 294 296 294 290 290 284 282 285 283 284 295 292 290 289 287 287 288 288 287 287 289 289 287 287 287 287 287 287 287 287 288 288 287 288 287 287 287 289 289 290
294 288 281 284 288 291 290 292 292 291 288 283 281 283 292 290 288 287 286 287 287 286 284 285 286 287 286 285 286 285 285 285 286 285 286 286 286 286 285 284 286 286 287 287
295 288 284 279 283 288 285 287 289 287 281 282 283 284 287 290 289 287 287 287 286 285 284 284 285 285 286 285 285 285 284 285 285 284 284 284 284 284 284 283 283 285 285 285
291 283 285 286 287 286 285 284 285 284 285 280 283 284 287 289 289 286 286 286 285 284 284 284 284 285 286 285 285 285 285 285 285 284 282 282 283 283 283 282 282 283 284 284
288 281 283 279 283 283 281 284 284 285 285 284 284 283 290 287 285 284 284 283 283 283 285 284 284 284 285 285 285 284 284 285 284 283 282 282 282 281 281 281 280 281 282 282
283 281 278 274 279 279 274 279 281 282 284 283 279 282 281 281 281 282 282 282 282 283 284 284 284 284 285 285 286 284 284 285 283 282 281 281 281 280 280 279 278 279 279 280
281 279 279 274 275 267 279 284 283 281 282 283 282 279 279 279 281 282 283 283 283 283 283 284 285 285 286 286 285 285 284 283 282 281 281 280 280 279 279 277 277 277 278 278
283 280 275 271 271 275 278 280 279 278 277 282 282 279 279 280 281 280 284 284 283 283 284 285 287 286 286 285 284 283 282 281 281 280 280 280 279 278 277 275 275 276 276 276
280 281 276 274 269 266 276 281 281 280 272 281 280 278 279 279 273 278 283 284 284 284 285 285 286 286 284 284 282 280 279 279 278 278 278 279 278 277 275 275 274 275 274 275
273 275 272 272 270 273 281 279 281 270 274 281 281 280 280 277 279 283 284 283 284 285 285 286 285 282 282 281 279 277 277 276 277 277 276 276 276 275 275 274 274 273 272 272
272 272 271 271 268 266 280 278 274 280 282 282 281 282 281 282 282 282 282 283 283 283 283 283 280 279 279 278 276 274 273 275 274 272 271 271 271 271 272 270 270 270 269 269
271 275 273 274 273 281 281 280 283 284 282 283 282 283 282 281 281 282 281 282 282 281 279 278 276 274 274 274 273 270 271 270 269 267 265 265 266 267 267 267 267 267 267 267
278 280 275 275 277 279 281 283 283 284 283 284 284 283 283 281 281 281 280 279 278 277 275 274 272 270 269 270 270 268 268 266 264 262 262 263 263 263 263 264 265 264 264 264
279 279 276 276 278 280 281 282 282 283 284 283 283 282 281 280 279 278 277 275 274 273 272 271 268 267 267 267 266 265 265 263 261 261 261 261 262 262 262 263 263 263 264 264
280 277 275 274 280 279 280 283 284 282 282 282 282 279 277 275 275 274 272 272 271 269 268 267 266 265 264 264 263 263 263 262 260 260 260 261 261 261 262 261 261 266 267 268
Wind_Speed
8 8 10 15 16 20 20 21 23 21 20 22 21 21 20 20 24 23 19 15 8 5 14 15 16 17 17 16 15 13 7 5 5 7 7 7 8 7 8 8 10 11 11 13
5 12 15 15 12 13 18 21 21 20 16 12 17 20 25 22 19 14 12 10 5 12 14 15 17 19 20 19 18 15 12 7 2 4 3 5 5 7 7 6 8 9 10 11
17 14 5 9 12 18 17 19 22 23 17 17 13 15 12 10 19 10 7 12 17 14 14 15 16 17 16 18 18 17 15 10 6 3 3 3 4 3 5 5 6 6 9 10
11 7 6 11 15 14 15 11 7 12 10 10 7 12 11 17 12 9 13 15 14 14 14 14 15 17 18 17 14 15 15 14 11 7 3 4 4 5 4 5 4 5 7 10
1 5 4 8 9 4 8 2 7 7 11 17 14 10 5 15 8 14 12 12 12 13 13 15 17 17 16 16 15 15 16 16 15 13 8 5 4 5 5 2 2 5 6 9
18 3 4 10 3 7 6 8 14 13 9 9 6 7 4 5 5 13 10 11 11 11 12 13 12 12 12 12 12 13 15 17 16 14 12 10 9 8 6 5 5 3 5 6
4 7 6 4 7 5 6 9 7 8 9 13 5 7 8 6 3 5 10 9 10 10 11 11 11 10 11 12 11 13 16 18 17 16 15 12 10 10 10 7 5 5 5 4
13 16 7 10 6 12 10 9 8 11 14 16 8 13 9 5 12 12 10 10 9 9 8 8 10 9 10 11 15 15 15 15 15 15 15 14 14 8 7 8 8 6 6 4
11 9 4 4 4 2 4 8 8 7 11 9 14 23 18 12 13 9 10 9 8 7 6 8 10 12 12 12 13 13 14 14 14 13 11 11 11 12 11 11 9 7 9 7
2 11 3 1 2 8 6 5 7 4 6 16 12 18 14 7 12 11 8 7 6 8 10 11 11 10 10 10 11 14 15 14 13 13 11 10 11 11 10 9 10 9 9 10
4 3 9 6 7 12 10 10 11 12 12 14 16 13 9 10 8 7 7 7 8 8 8 8 7 8 9 10 12 13 13 13 12 11 11 10 9 10 9 9 10 10 10 9
10 5 11 23 21 19 14 16 16 13 10 11 14 12 10 8 7 5 4 5 5 5 6 6 5 7 9 11 11 11 10 10 10 10 9 9 9 9 9 10 10 10 10 10
3 2 6 8 9 2 4 6 12 14 13 17 15 11 7 4 3 2 4 6 4 4 4 5 6 7 8 8 8 8 8 8 8 9 8 8 9 9 9 10 10 10 11 11
2 5 11 13 18 19 19 18 15 11 10 17 16 14 15 14 10 8 12 6 5 4 4 5 6 8 7 7 7 8 8 6 7 8 9 8 8 8 9 9 10 9 9 9
5 10 15 18 21 20 18 20 24 24 23 25 23 23 24 23 16 7 2 1 5 7 6 4 5 7 9 9 10 9 10 9 9 9 8 9 8 9 9 8 10 10 9 9
6 11 12 17 19 20 22 25 24 22 22 25 26 28 23 10 3 3 2 4 7 9 8 5 5 7 8 8 8 9 10 9 9 10 10 9 8 8 8 8 9 10 10 11
11 8 8 19 15 18 18 23 23 26 27 25 23 12 7 5 4 5 6 7 9 10 10 8 8 8 7 8 7 9 10 8 6 8 9 9 9 9 9 9 11 11 12 12
12 13 10 16 13 22 13 14 12 16 14 10 4 2 2 2 7 9 10 10 11 12 11 11 10 11 10 10 9 9 6 7 8 10 10 9 10 11 10 10 11 12 11 13
18 17 11 12 16 19 25 21 20 17 17 11 8 5 2 9 12 14 10 7 10 11 10 10 11 11 11 10 9 7 7 9 10 11 12 12 11 11 11 12 14 14 13 13
7 14 12 10 15 18 14 5 2 2 13 7 6 3 7 7 9 12 12 11 11 11 10 10 11 8 10 10 9 8 10 11 12 13 13 13 13 12 14 14 14 15 14 15
4 5 15 14 17 13 8 4 2 8 9 10 5 6 9 11 11 13 11 13 11 10 11 10 8 8 10 9 10 12 12 13 13 12 14 14 14 15 16 16 15 15 16 16
8 8 7 5 7 14 4 5 6 6 2 5 10 13 13 14 12 12 13 11 10 11 10 9 9 10 11 12 11 13 15 14 14 14 16 16 16 14 14 18 17 17 17 18
9 12 7 8 8 5 10 9 11 12 13 15 18 16 12 12 12 12 12 11 10 8 8 8 8 11 13 10 10 14 15 15 17 17 17 17 17 16 15 17 17 15 15 15
16 18 13 14 16 23 19 20 18 16 17 17 15 13 11 13 10 7 6 6 6 6 7 7 8 10 13 11 11 12 14 15 15 17 17 16 16 16 15 13 13 14 13 14
13 5 14 14 20 21 19 19 19 18 16 15 12 8 10 8 6 5 5 5 6 7 8 7 9 11 14 14 14 12 13 14 15 15 15 15 13 15 15 14 13 13 14 17
17 21 13 15 19 16 18 16 15 11 14 13 10 6 4 2 4 3 4 5 6 7 9 9 10 12 13 14 15 14 13 13 15 16 13 13 13 13 13 14 14 23 30 33
Wind_Direction
193 226 224 251 248 258 277 284 285 285 297 296 298 298 297 289 281 279 281 287 296 26 67 46 38 28 23 23 13 1 337 275 227 231 227 228 232 216 222 223 219 214 202 200
190 239 254 271 282 291 279 281 282 287 296 311 290 295 292 289 277 283 296 313 58 88 57 41 32 29 25 19 16 15 10 346 275 257 248 261 245 235 233 231 228 215 212 204
254 271 317 269 258 263 271 283 291 296 310 290 297 282 289 254 288 301 356 91 72 55 49 40 35 34 29 27 19 20 19 26 22 357 305 267 286 360 281 237 242 221 228 210
264 286 249 253 254 269 274 283 298 296 301 300 19 297 291 275 263 71 101 75 73 56 44 43 38 34 31 25 23 38 37 33 32 27 21 340 292 274 259 260 265 236 223 230
111 169 184 225 236 221 264 307 285 279 268 286 274 259 268 278 268 110 91 78 66 68 56 44 35 32 29 29 24 28 34 42 38 27 17 5 328 298 301 313 320 223 234 231
269 100 259 254 266 226 349 276 263 259 264 262 296 271 289 22 359 123 115 94 75 64 63 60 53 40 35 36 37 34 44 43 36 31 27 14 347 332 322 310 292 244 229 226
276 221 190 244 259 202 227 276 293 270 251 267 223 276 264 323 162 136 124 91 71 64 58 53 53 50 41 34 33 43 36 39 32 27 27 19 9 346 328 322 298 288 269 241
288 293 184 157 241 307 281 264 266 287 285 296 288 268 246 2 114 122 123 116 96 70 56 55 52 47 44 34 32 34 42 41 33 30 21 19 15 6 346 338 323 313 301 279
305 257 351 258 275 284 287 240 289 289 277 280 263 269 273 228 153 134 118 105 87 82 56 33 35 35 27 31 35 34 37 35 31 26 23 22 17 14 5 353 339 328 317 308
81 290 262 82 268 214 236 351 264 214 252 260 260 273 272 256 168 143 114 88 63 39 37 31 24 24 25 25 23 30 33 30 23 21 21 15 17 11 7 0 2 346 330 321
27 221 279 305 234 265 255 252 241 266 248 260 268 266 26 41 85 109 77 47 31 29 24 26 25 17 18 25 27 29 22 17 14 15 11 8 11 7 5 4 2 353 343 332
283 286 264 276 287 286 296 270 275 256 249 249 264 259 7 85 85 77 46 2 359 9 9 14 15 26 21 13 17 19 16 15 6 0 360 6 5 2 4 358 354 351 346 339
59 207 281 282 276 91 210 281 280 263 262 259 273 286 88 92 125 150 265 272 251 317 360 15 17 15 19 6 2 1 3 4 359 349 349 354 0 356 356 353 349 346 342 337
78 242 247 259 279 305 298 297 293 280 271 281 263 275 268 245 231 218 213 220 259 268 302 325 350 351 353 351 349 347 347 360 345 342 342 345 348 343 348 338 334 332 332 328
245 261 263 269 275 283 288 281 275 269 265 260 278 287 288 296 305 331 8 249 252 248 253 296 320 311 318 331 327 331 330 339 339 332 332 331 330 326 323 322 324 316 315 315
267 270 290 281 277 276 275 271 267 271 272 269 271 272 279 357 44 256 282 275 293 301 271 283 287 293 289 280 294 305 314 316 333 321 315 314 313 313 307 306 309 304 308 312
265 268 264 267 282 287 267 256 262 263 262 269 275 312 359 6 335 320 312 303 301 305 292 268 286 298 312 307 292 289 296 297 298 291 294 299 301 298 303 310 310 310 306 300
254 258 256 271 282 258 263 274 290 286 286 297 309 67 111 352 323 315 300 293 301 306 301 289 288 298 309 312 309 302 294 283 280 277 280 281 287 290 296 301 301 302 302 299
234 251 264 254 250 276 291 287 286 294 292 311 205 180 8 328 313 291 284 346 319 302 306 305 297 295 306 311 317 318 302 291 287 285 288 285 283 282 284 287 294 295 296 293
245 236 237 247 259 265 286 348 349 308 274 127 110 174 303 301 283 289 324 323 301 290 297 305 314 316 310 324 329 314 303 301 297 299 296 293 286 280 278 278 281 287 285 282
211 226 231 243 255 268 270 92 145 245 299 150 179 284 286 275 272 292 300 291 287 295 302 307 316 313 318 333 335 315 309 304 306 307 301 297 292 288 285 283 280 283 283 280
232 246 225 229 260 270 88 120 227 324 196 228 268 296 289 290 281 286 283 285 293 309 328 339 327 317 321 331 334 313 308 316 318 312 302 298 297 294 291 288 286 283 281 278
239 238 257 233 244 244 192 229 253 271 272 282 297 298 290 281 272 278 287 295 318 331 339 339 329 317 316 328 325 310 312 319 315 312 307 305 302 297 293 289 287 286 281 276
252 250 246 253 247 257 266 268 268 274 275 279 281 287 284 270 280 286 291 303 312 321 327 336 325 309 305 319 315 307 312 315 309 303 302 303 299 298 294 287 285 283 282 280
245 256 239 252 257 266 262 264 266 269 273 279 285 277 263 269 259 284 297 308 307 318 322 326 314 304 304 313 309 311 308 308 303 300 299 297 292 292 293 284 283 279 275 273
239 240 245 252 259 262 266 273 275 281 281 274 274 199 188 210 264 286 284 308 316 317 321 309 304 301 302 304 304 306 307 305 301 299 298 297 297 293 289 288 285 278 284 285